User: anonymous   Login
Location: Skalnate Pleso
(49.1889°N, 20.2450°E)
Time: 16:02:53
(UTC+01:00)
Language:

CZ-4B R/B - Orbit

View from above orbital plane
View from above orbital plane
View from above satellite
View from above satellite

Ground track
Ground track

The orbit data is extracted from the following two-line orbital elements,

1 27432U 02024C   20024.58041691 -.00000041 +00000-0 +25797-5 0  9999
2 27432 099.0836 024.3435 0049769 224.2824 242.1452 14.14088532913172
Epoch (UTC): 24 January 2020 13:55:48
Eccentricity: 0.0049769
inclination: 99.0836°
perigee height: 809 km
apogee height: 881 km
right ascension of ascending node: 24.3435°
argument of perigee: 224.2824°
revolutions per day: 14.14088532
mean anomaly at epoch: 242.1452°
orbit number at epoch: 91317

The dashed part of the orbit path shows where the satellite is in the earth's shadow,  

DLR